Accueil
METAR-TAF:

METAR-TAF

Aéroports :

Aéroport de Valence-Chabeuil

Valence, France

latitude: 44-54-58N, longitude: 4-58-06E, altitude: 160 m

Observation

Le bulletin a été fait il y a 31 minutes, à 16:00 UTC
Vent 3 kt de nord/nord-est, variant entre nord-ouest et est/nord-est
Température 27°C
Humidité 48%
Pression 1014 hPa
Visibilité 10 km ou plus
Quelques nuages à une hauteur de 5800 ft

METAR: LFLU 281600Z AUTO 02003KT 320V060 9999 FEW058 27/15 Q1014

Heure: 18:31 (16:31 UTC)


TAF: absent

Observations et prévisions météorologiques de plus de 4000 aéroports (messages METAR et TAF).

Les stations disponibles sont représentées par des disques jaunes et rouges sur la carte.

Passer la souris dessus pour voir le nom de la station.

Cliquer dessus pour voir les observations et prévisions météorologiques.

Pour changer de carte: cliquez sur les boutons verts avec une croix noire pour zoomer, sur le bouton vert avec un tiret pour effectuer un zoom arrière, ou sur les flèches vertes pour les cartes adjacentes.


METAR-TAF: